Todos
Ginbata Airport (Roy Hill Mine, Western Australia) GBW Condições meteorológicas
There is no TAF data available at GBW. Showing TAF data for YCHK (29 mi O).
CKW Previsão da área de terminais (sem dados para GBW)
| Date | Time (AWST) | Flight Rules | Wind Dir. | Speed | Type | Height AGL (ft) | Visibility | Remarks | ||||||
|---|---|---|---|---|---|---|---|---|---|---|---|---|---|---|
| 05-Mai | 21:00 | VFR | 120° | 12 kt | Clouds and Visibility are OK | >= 6 miles | ||||||||
| 05-Mai | 20:00 | VFR | 120° | 12 kt | Clouds and Visibility are OK | >= 6 miles | ||||||||
| 05-Mai | 19:00 | VFR | 120° | 12 kt | Clouds and Visibility are OK | >= 6 miles | ||||||||
There is no METAR data available at GBW. Showing METAR data for YCHK (29 mi O).
Histórico recente de METAR CKW (sem dados para GBW)
| Date | Time (AWST) | Flight Rules | Wind Dir. | Speed | Type | Height AGL (ft) | Visibility | Temp (°C) | Temp (°F) | Dew Point (°C) | Dew Point (°F) | Rel. Humid. | Pressure | Density Altitude | Remarks |
|---|---|---|---|---|---|---|---|---|---|---|---|---|---|---|---|
| 05-Mai | 19:00 | VFR | 140° | 6 kt | 10000 meters | 23° | 73° | -2° | 28° | 19% | 1020 mb | 2.451 ft | |||
| 05-Mai | 18:00 | VFR | 140° | 8 kt | 10000 meters | 24° | 75° | -1° | 30° | 19% | 1019 mb | 2.601 ft | |||
| 05-Mai | 17:00 | VFR | 140° | 10 kt | 10000 meters | 25° | 77° | -2° | 28° | 17% | 1019 mb | 2.721 ft | |||
| 05-Mai | 16:00 | VFR | 120° | 11 kt | 10000 meters | 25° | 77° | -3° | 26° | 15% | 1018 mb | 2.750 ft | |||
| 05-Mai | 15:00 | VFR | 140° | 12 kt | 10000 meters | 26° | 78° | -3° | 26° | 15% | 1018 mb | 2.870 ft | |||
| 05-Mai | 14:00 | VFR | 120° | 10 kt | 10000 meters | 25° | 77° | -3° | 26° | 15% | 1018 mb | 2.750 ft | |||
| 05-Mai | 13:00 | VFR | 110° | 8 kt | 10000 meters | 24° | 75° | -1° | 30° | 19% | 1019 mb | 2.601 ft | |||
| gap in available data | |||||||||||||||
| 05-Mai | 11:30 | VFR | 110° | 12 kt | 10000 meters | 22° | 71° | -1° | 30° | 21% | 1021 mb | 2.301 ft | |||
| 05-Mai | 11:00 | VFR | 110° | 13 kt | 10000 meters | 22° | 71° | 0° | 32° | 23% | 1021 mb | 2.301 ft | |||
| 05-Mai | 10:00 | VFR | 110° | 12 kt | 10000 meters | 20° | 68° | 1° | 33° | 28% | 1022 mb | 2.032 ft | |||
| 05-Mai | 09:00 | VFR | 110° | 11 kt | 10000 meters | 18° | 64° | 2° | 35° | 34% | 1022 mb | 1.792 ft | |||
| 05-Mai | 08:00 | VFR | 130° | 9 kt | 10000 meters | 15° | 59° | 1° | 33° | 39% | 1022 mb | 1.432 ft | |||
| 05-Mai | 07:00 | VFR | 160° | 6 kt | 10000 meters | 12° | 53° | -1° | 30° | 40% | 1022 mb | 1.072 ft | |||
| 05-Mai | 06:00 | VFR | 160° | 6 kt | 10000 meters | 12° | 53° | -1° | 30° | 40% | 1021 mb | 1.101 ft | |||
| 05-Mai | 05:00 | VFR | 150° | 5 kt | 10000 meters | 13° | 55° | -2° | 28° | 35% | 1021 mb | 1.221 ft | |||
| 05-Mai | 04:00 | VFR | 130° | 7 kt | 10000 meters | 14° | 57° | -2° | 28° | 33% | 1020 mb | 1.371 ft | |||
| 05-Mai | 03:00 | VFR | 120° | 6 kt | 10000 meters | 15° | 59° | -3° | 26° | 29% | 1020 mb | 1.491 ft | |||
| 05-Mai | 02:00 | VFR | 130° | 6 kt | 10000 meters | 16° | 60° | -3° | 26° | 27% | 1021 mb | 1.581 ft | |||
| 05-Mai | 01:00 | VFR | 120° | 5 kt | 10000 meters | 16° | 60° | -3° | 26° | 27% | 1021 mb | 1.581 ft | |||
| 05-Mai | 00:00 | VFR | 130° | 5 kt | 10000 meters | 17° | 62° | -3° | 26° | 25% | 1021 mb | 1.701 ft | |||
| 04-Mai | 23:00 | VFR | 130° | 4 kt | 10000 meters | 18° | 64° | -2° | 28° | 26% | 1021 mb | 1.821 ft | |||
| 04-Mai | 22:00 | VFR | 130° | 4 kt | 10000 meters | 19° | 66° | -1° | 30° | 26% | 1021 mb | 1.941 ft | |||
| 04-Mai | 21:00 | VFR | 130° | 7 kt | 10000 meters | 21° | 69° | -1° | 30° | 23% | 1021 mb | 2.181 ft | |||
| 04-Mai | 20:00 | VFR | 140° | 7 kt | 10000 meters | 23° | 73° | -1° | 30° | 20% | 1021 mb | 2.421 ft | |||
Entrar
| Seu navegador não suporta. atualize seu navegador |
